Meteo pe oră la Al Mashhad

Astăzi, 28 Ianuarie, Joi

Timp Temperatura Precipitaţii Vânt Presiune Umiditate
00:00 +17°C° 0 mm 3 m/s 647 mmHg 22%
01:00 +16°C° 0 mm 3 m/s 647 mmHg 22%
02:00 +16°C° 0 mm 2 m/s 646 mmHg 23%
03:00 +15°C° 0 mm 2 m/s 646 mmHg 23%
04:00 +15°C° 0 mm 2 m/s 646 mmHg 23%
05:00 +15°C° 0 mm 2 m/s 646 mmHg 24%
06:00 +14°C° 0 mm 2 m/s 646 mmHg 24%
07:00 +16°C° 0 mm 2 m/s 647 mmHg 21%
08:00 +19°C° 0 mm 2 m/s 648 mmHg 18%
09:00 +21°C° 0 mm 2 m/s 649 mmHg 15%
10:00 +24°C° 0 mm 2 m/s 649 mmHg 15%
11:00 +25°C° 0 mm 2 m/s 649 mmHg 15%
12:00 +27°C° 0 mm 2 m/s 649 mmHg 14%
13:00 +27°C° 0 mm 2 m/s 649 mmHg 18%
14:00 +27°C° 0 mm 3 m/s 648 mmHg 21%
15:00 +27°C° 0 mm 4 m/s 648 mmHg 24%
16:00 +26°C° 0 mm 3 m/s 647 mmHg 31%
17:00 +24°C° 0 mm 2 m/s 647 mmHg 37%
18:00 +23°C° 0 mm 2 m/s 647 mmHg 44%
19:00 +22°C° 0 mm 1 m/s 647 mmHg 47%
20:00 +21°C° 0 mm 1 m/s 647 mmHg 51%
21:00 +20°C° 0 mm 1 m/s 648 mmHg 54%
22:00 +19°C° 0 mm 1 m/s 647 mmHg 49%
23:00 +19°C° 0 mm 1 m/s 647 mmHg 44%

Mâine, 29 Ianuarie, Vineri

Timp Temperatura Precipitaţii Vânt Presiune Umiditate
00:00 +18°C° 0 mm 1 m/s 647 mmHg 39%
01:00 +18°C° 0 mm 1 m/s 647 mmHg 36%
02:00 +16°C° 0 mm 1 m/s 646 mmHg 33%
03:00 +16°C° 0 mm 1 m/s 645 mmHg 31%
04:00 +15°C° 0 mm 1 m/s 646 mmHg 29%
05:00 +15°C° 0 mm 1 m/s 646 mmHg 28%
06:00 +15°C° 0 mm 1 m/s 646 mmHg 27%
07:00 +18°C° 0 mm 1 m/s 647 mmHg 23%
08:00 +21°C° 0 mm 1 m/s 648 mmHg 19%
09:00 +22°C° 0 mm 0 m/s 650 mmHg 15%
10:00 +25°C° 0 mm 1 m/s 650 mmHg 16%
11:00 +27°C° 0 mm 3 m/s 649 mmHg 17%
12:00 +28°C° 0 mm 4 m/s 649 mmHg 18%
13:00 +28°C° 0 mm 4 m/s 649 mmHg 21%
14:00 +27°C° 0 mm 5 m/s 648 mmHg 25%
15:00 +27°C° 0 mm 6 m/s 647 mmHg 28%
16:00 +25°C° 0 mm 5 m/s 647 mmHg 38%
17:00 +23°C° 0 mm 4 m/s 647 mmHg 47%
18:00 +21°C° 0 mm 3 m/s 647 mmHg 57%
19:00 +20°C° 0 mm 2 m/s 647 mmHg 64%
20:00 +20°C° 0 mm 1 m/s 647 mmHg 72%
21:00 +17°C° 0 mm 0 m/s 647 mmHg 80%
22:00 +16°C° 0 mm 0 m/s 647 mmHg 78%
23:00 +16°C° 0 mm 0 m/s 647 mmHg 76%

Poimâine, 30 Ianuarie, Sâmbătă

Timp Temperatura Precipitaţii Vânt Presiune Umiditate
00:00 +15°C° 0 mm 0 m/s 646 mmHg 75%
01:00 +15°C° 0 mm 0 m/s 646 mmHg 74%
02:00 +14°C° 0 mm 0 m/s 646 mmHg 74%
03:00 +14°C° 0 mm 0 m/s 645 mmHg 73%
04:00 +13°C° 0 mm 0 m/s 645 mmHg 73%
05:00 +13°C° 0 mm 0 m/s 646 mmHg 72%
06:00 +12°C° 0 mm 0 m/s 646 mmHg 72%
07:00 +15°C° 0 mm 0 m/s 647 mmHg 59%
08:00 +17°C° 0 mm 0 m/s 648 mmHg 45%
09:00 +20°C° 0 mm 0 m/s 649 mmHg 32%
10:00 +24°C° 0 mm 1 m/s 649 mmHg 29%
11:00 +25°C° 0 mm 2 m/s 649 mmHg 26%
12:00 +27°C° 0 mm 3 m/s 649 mmHg 23%
13:00 +27°C° 0 mm 4 m/s 648 mmHg 28%
14:00 +26°C° 0 mm 4 m/s 648 mmHg 33%
15:00 +26°C° 0 mm 5 m/s 647 mmHg 37%
16:00 +25°C° 0 mm 4 m/s 647 mmHg 48%
17:00 +22°C° 0 mm 4 m/s 647 mmHg 59%
18:00 +20°C° 0 mm 3 m/s 647 mmHg 70%
19:00 +20°C° 0 mm 2 m/s 647 mmHg 76%
20:00 +20°C° 0 mm 1 m/s 647 mmHg 81%
21:00 +19°C° 0 mm 1 m/s 647 mmHg 87%
22:00 +19°C° 0 mm 1 m/s 647 mmHg 82%
23:00 +19°C° 0 mm 1 m/s 647 mmHg 78%

31 Ianuarie, Duminică

Timp Temperatura Precipitaţii Vânt Presiune Umiditate
00:00 +18°C° 0 mm 1 m/s 647 mmHg 74%
01:00 +18°C° 0 mm 1 m/s 647 mmHg 66%
02:00 +18°C° 0 mm 1 m/s 646 mmHg 58%
03:00 +16°C° 0 mm 2 m/s 646 mmHg 50%
04:00 +16°C° 0 mm 2 m/s 646 mmHg 47%
05:00 +16°C° 0 mm 2 m/s 646 mmHg 43%
06:00 +16°C° 0 mm 3 m/s 647 mmHg 40%
07:00 +18°C° 0 mm 3 m/s 647 mmHg 33%
08:00 +20°C° 0 mm 4 m/s 648 mmHg 26%
09:00 +22°C° 0 mm 5 m/s 649 mmHg 20%
10:00 +23°C° 0 mm 4 m/s 649 mmHg 19%
11:00 +26°C° 0 mm 4 m/s 649 mmHg 18%
12:00 +27°C° 0 mm 4 m/s 650 mmHg 18%
13:00 +27°C° 0 mm 4 m/s 649 mmHg 21%
14:00 +27°C° 0 mm 4 m/s 649 mmHg 24%
15:00 +28°C° 0 mm 4 m/s 648 mmHg 27%
16:00 +26°C° 0 mm 3 m/s 648 mmHg 35%
17:00 +24°C° 0 mm 3 m/s 648 mmHg 43%
18:00 +23°C° 0 mm 2 m/s 647 mmHg 50%
19:00 +21°C° 0 mm 2 m/s 648 mmHg 49%
20:00 +20°C° 0 mm 2 m/s 648 mmHg 47%
21:00 +19°C° 0 mm 2 m/s 648 mmHg 45%
22:00 +19°C° 0 mm 2 m/s 648 mmHg 41%
23:00 +18°C° 0 mm 2 m/s 648 mmHg 37%

1 Februarie, Luni

Timp Temperatura Precipitaţii Vânt Presiune Umiditate
00:00 +18°C° 0 mm 2 m/s 648 mmHg 33%
01:00 +17°C° 0 mm 2 m/s 648 mmHg 32%
02:00 +17°C° 0 mm 2 m/s 647 mmHg 31%
03:00 +16°C° 0 mm 2 m/s 647 mmHg 30%
04:00 +16°C° 0 mm 2 m/s 647 mmHg 29%
05:00 +14°C° 0 mm 3 m/s 647 mmHg 29%
06:00 +14°C° 0 mm 3 m/s 647 mmHg 29%
07:00 +17°C° 0 mm 3 m/s 648 mmHg 26%
08:00 +19°C° 0 mm 3 m/s 649 mmHg 24%
09:00 +20°C° 0 mm 4 m/s 650 mmHg 21%
10:00 +22°C° 0 mm 3 m/s 650 mmHg 20%
11:00 +25°C° 0 mm 3 m/s 650 mmHg 18%
12:00 +27°C° 0 mm 3 m/s 650 mmHg 17%
13:00 +27°C° 0 mm 3 m/s 650 mmHg 19%
14:00 +27°C° 0 mm 3 m/s 649 mmHg 21%
15:00 +28°C° 0 mm 3 m/s 649 mmHg 24%
16:00 +26°C° 0 mm 3 m/s 649 mmHg 28%
17:00 +25°C° 0 mm 2 m/s 648 mmHg 33%
18:00 +23°C° 0 mm 2 m/s 648 mmHg 38%
19:00 +23°C° 0 mm 2 m/s 648 mmHg 36%
20:00 +21°C° 0 mm 3 m/s 649 mmHg 34%
21:00 +20°C° 0 mm 3 m/s 649 mmHg 32%
22:00 +20°C° 0 mm 3 m/s 649 mmHg 31%
23:00 +19°C° 0 mm 3 m/s 649 mmHg 29%

2 Februarie, Marţi

Timp Temperatura Precipitaţii Vânt Presiune Umiditate
00:00 +18°C° 0 mm 3 m/s 649 mmHg 28%
01:00 +18°C° 0 mm 3 m/s 648 mmHg 29%
02:00 +17°C° 0 mm 3 m/s 648 mmHg 29%
03:00 +17°C° 0 mm 3 m/s 648 mmHg 30%
04:00 +16°C° 0 mm 3 m/s 648 mmHg 31%
05:00 +16°C° 0 mm 3 m/s 648 mmHg 32%
06:00 +14°C° 0 mm 3 m/s 648 mmHg 33%
07:00 +17°C° 0 mm 3 m/s 648 mmHg 30%
08:00 +19°C° 0 mm 3 m/s 649 mmHg 27%
09:00 +20°C° 0 mm 3 m/s 650 mmHg 24%
10:00 +22°C° 0 mm 3 m/s 650 mmHg 22%
11:00 +25°C° 0 mm 3 m/s 650 mmHg 20%
12:00 +27°C° 0 mm 2 m/s 650 mmHg 18%
13:00 +27°C° 0 mm 3 m/s 650 mmHg 20%
14:00 +27°C° 0 mm 3 m/s 649 mmHg 23%
15:00 +28°C° 0 mm 4 m/s 649 mmHg 25%
16:00 +26°C° 0 mm 3 m/s 649 mmHg 32%
17:00 +25°C° 0 mm 3 m/s 648 mmHg 39%
18:00 +23°C° 0 mm 2 m/s 648 mmHg 46%
19:00 +21°C° 0 mm 2 m/s 648 mmHg 44%
20:00 +21°C° 0 mm 2 m/s 649 mmHg 42%
21:00 +20°C° 0 mm 2 m/s 649 mmHg 40%
22:00 +19°C° 0 mm 2 m/s 648 mmHg 36%
23:00 +19°C° 0 mm 3 m/s 648 mmHg 32%
Arată mai mult

Formular de consimțământ

Meteoprog și furnizorii noștri de servicii pot stoca și accesa date personale, precum cookies, identificatori de dispozitiv sau alte tehnologii similare pe dispozitivul dumneavoastră și procesa astfel de date pentru a personaliza conținutul și reclamele, dar și pentru a oferi caracteristici de social media și pentru a analiza traficul.

  • Stocarea și/sau accesarea informațiilor pe dispozitivul dumneavoastră

    Cookies, identificatori de dispozitiv sau alte informații pot fi stocate sau accesate pe dispozitiv în scopurile indicate mai sus.

  • Reclame și conținut personalizat, evaluarea reclamelor și a conținutului, informații despre audiențe și dezvoltarea produselor

    Reclamele și conținutul pot fi personalizate pe baza unui profil. Pot fi adăugate date suplimentare pentru a personaliza mai bine reclamele și conținutul. Performanța reclamelor și conținutului poate fi măsurată. Pot fi obținute informații despre utilizatorii care au văzut reclamele și conținutul. Aceste date pot fi utilizate pentru a dezvolta sau îmbunătăți experiența utilizatorilor, sistemele și software-ul.

Dând clic pe ‘Sunt de acord’, permiteți utilizarea cookie-urilor menționate, a identificatorilor de dispozitiv, balizelor web sau altor tehnologii similare. Setările pot fi modificate din browser-ul dispozitivului dumneavoastră.

În anumite scopuri, interesele legitime pot prima asupra consimțământului. Puteți citi mai multe informații în acest sens în Politica privind Confidențialitatea Datelor și Cookie.